Location: Lancaster
(34.6980°N, 118.1360°W)
Time: 00:27:09
(UTC-08:00)

N. Korean satellite - Visible Passes

Search period start: 22 January 2018 00:00
Search period end: 01 February 2018 00:00
Orbit: 458 x 515 km, 97.2° (Epoch: 21 January)

Date Brightness Start Highest point End Pass type
(mag) Time Alt. Az. Time Alt. Az. Time Alt. Az.
22 Jan 8.0 06:11:53 10° NNE 06:15:09 40° E 06:18:26 10° S visible
22 Jan 8.2 18:17:54 10° SSW 18:21:16 37° W 18:24:36 10° NNW visible
23 Jan 9.6 05:48:53 10° NE 05:51:25 19° E 05:53:57 10° SE visible
23 Jan 6.6 17:54:00 10° SSE 17:57:35 87° WSW 18:01:09 10° NNW visible
25 Jan 9.6 18:41:15 10° SW 18:43:49 18° W 18:46:20 10° NW visible
26 Jan 8.1 06:10:40 10° NNE 06:13:56 39° E 06:17:14 10° S visible
26 Jan 8.1 18:16:43 10° SSW 18:20:04 38° W 18:23:22 10° NNW visible
27 Jan 9.7 05:47:40 10° NE 05:50:11 19° E 05:52:42 10° SE visible
27 Jan 6.5 17:52:49 10° SSE 17:56:23 90° WNW 17:59:54 10° NNW visible
29 Jan 9.6 18:40:01 10° SW 18:42:33 19° W 18:45:05 10° NW visible
30 Jan 8.2 06:09:23 10° NNE 06:12:41 38° E 06:16:00 10° S visible
30 Jan 8.1 18:15:29 10° S 18:18:48 39° W 18:22:06 10° NNW visible
31 Jan 9.7 05:46:25 10° NE 05:48:55 18° E 05:51:26 10° SE visible
31 Jan 6.5 17:51:36 10° SSE 17:55:06 88° E 17:58:36 10° N visible
